Regional Weather Roundup
Issued by NWS

Home | Current Version | Previous Version | Graphics & Text | Print | Product List | Glossary On
Versions: 1 2 3 4 5 6 7 8 9 10 11 12 13 14 15 16 17 18 19 20 21 22 23 24 25 26 27 28 29 30 31 32 33 34 35 36 37 38 39 40 41 42 43 44 45 46 47 48 49 50
000
ASUS43 KMPX 131101
RWRMN
WEATHER ROUNDUP FOR MINNESOTA
NATIONAL WEATHER SERVICE TWIN CITIES/CHANHASSEN MN
600 AM CDT SUN JUL 13 2014


NOTE: "FAIR" INDICATES FEW OR NO CLOUDS BELOW 12,000 FEET WITH NO
SIGNIFICANT WEATHER AND/OR OBSTRUCTIONS TO VISIBILITY. N/A MEANS
CURRENT SKY AND/OR WEATHER CONDITIONS ARE NOT AVAILABLE.

MNZ060>063-068>070-131200-
   Twin Cities Metro

CITY           SKY/WX    TMP DP  RH WIND       PRES   REMARKS
TWIN CITIES    CLEAR     64  57  78 N6        29.94R
ST PAUL        CLEAR     62  59  90 NW5       29.94R
CRYSTAL        CLEAR     62  57  83 NW6       29.93R
BLAINE         CLEAR     61  59  94 W5        29.94R
LAKEVILLE      CLEAR     63  61  94 NW5       29.94R
EDEN PRAIRIE   CLEAR     63  59  87 NW7       29.94R
SOUTH ST PAUL  CLEAR     64  59  84 CALM      29.93R
LAKE ELMO      FAIR      61  59  94 CALM      29.94R
$$
MNZ001>005-007-008-013>017-022>024-027-028-131200-
   Northwest Minnesota

CITY           SKY/WX    TMP DP  RH WIND       PRES   REMARKS
BEMIDJI        FOG       52  52 100 W7        29.93R VSB 1/2
HALLOCK        CLEAR     54  52  94 SW6       29.91R FOG
ROSEAU         PTCLDY    54  48  82 SW5       29.88F
WARROAD        MOCLDY    54  48  82 W7        29.87F
THIEF RVR FALL CLEAR     52  52 100 SW6       29.92S
CROOKSTON      CLEAR     54  52  94 W9        29.94R
FOSSTON        CLOUDY    54  52  94 CALM      29.95S FOG
MOORHEAD       CLEAR     55  55 100 SW3       29.97S
PARK RAPIDS    FOG       51  51 100 W8        29.95R VSB 1/4
$$
MNZ006-009>011-018-025>026-131200-
   North Central Minnesota

CITY           SKY/WX    TMP DP  RH WIND       PRES   REMARKS
BAUDETTE       CLOUDY    54  49  83 VRB5      29.87F
FLAG ISLAND    PTCLDY    54  48  82 W13       29.82F
INTL FALLS     CLEAR     50  47  89 W8        29.85S
WASKISH        PTCLDY    59  50  72 W14G22    29.89S
BIG FORK       PTCLDY    48  46  93 SW2       29.90S
LONGVILLE      MOCLDY    52  52 100 CALM      29.93R
GRAND RAPIDS   CLEAR     48  46  93 SW3       29.91S
CRANE LAKE     CLEAR     48  46  93 SW3         N/A
ORR            CLEAR     46  45  93 CALM      29.85S
COOK           CLEAR     48  46  93 SW5       29.88S
$$
MNZ012-019>021-037-131200-
   Northeast Minnesota

CITY           SKY/WX    TMP DP  RH WIND       PRES   REMARKS
DULUTH         PTCLDY    52  49  89 W8        29.89R
ELY            CLEAR     48  46  93 CALM      29.85S
HIBBING        PTCLDY    50  47  89 W3        29.89S
EVELETH        CLEAR     50  48  93 W7        29.89S
DULUTH HARBOR  CLEAR     57  52  82 W10       29.90S
TWO HARBORS    CLEAR     50  45  81 W3        29.86R
SILVER BAY     CLEAR     50  50 100 CALM      29.84R
GRAND MARAIS     N/A     52  46  80 SW3       29.81R
G MARAIS ARPRT CLEAR     48  45  87 W7        29.81S
$$
MNZ029>031-032-039>041-046>048-054>057-064-131200-
   West Central Minnesota

CITY           SKY/WX    TMP DP  RH WIND       PRES   REMARKS
FERGUS FALLS   CLEAR     52  50  93 W6        29.99R FOG
WHEATON        CLEAR     54  52  94 W3        30.01R
MORRIS         CLEAR     54  52  94 W5        29.98R
ALEXANDRIA     CLEAR     56  53  90 W7        29.99R
ELBOW LAKE     FAIR      54  52  94 W5        29.97S
WADENA         CLEAR     54  52  94 W3        29.96R FOG
GLENWOOD       CLEAR     54  52  94 W3        29.98R
APPLETON       CLEAR     55  52  88 W3        29.99S
BENSON         CLEAR     54  52  94 W5        29.99R
ORTONVILLE     CLEAR     57  54  88 CALM      30.00R
MADISON        CLEAR     61  55  82 NW3       30.01R
WILLMAR        FAIR      61  55  82 W5        30.00R
$$
MNZ033>034-036-042>043-049>051-058-059-131200-
   Central Minnesota

CITY           SKY/WX    TMP DP  RH WIND       PRES   REMARKS
ST CLOUD       CLEAR     57  53  86 CALM      29.95R
SAUK CENTRE    FAIR      52  52  98 CALM      29.97R
PAYNESVILLE    CLEAR     51  51  98 S6        29.98R FOG
AITKIN         HAZE      50  45  81 CALM      29.92S VSB 1/2
PINE RIVER     CLEAR     50  50 100 CALM      29.97S FOG
BRAINERD       CLEAR     59  51  75 NW3       29.94S
STAPLES        CLEAR     52  50  93 W3        29.96R
LONG PRAIRIE   FAIR      52  50  93 CALM      29.97R
LITTLE FALLS   CLEAR     52  50  93 CALM      29.95S FOG
LITCHFIELD     CLEAR     61  57  88 NW3       29.98R
BUFFALO        CLEAR     60  54  81 CALM      29.96R
MAPLE LAKE     CLEAR     59  56  91 CALM      29.97R
$$
MNZ037-044-045-052-053-131200-
   East Central Minnesota

CITY           SKY/WX    TMP DP  RH WIND       PRES   REMARKS
PRINCETON      CLEAR     55  54  94 W3        29.95R
MORA           CLEAR     54  50  87 CALM      29.95R
CAMBRIDGE      CLEAR     57  50  77 CALM      29.93R HAZE
RUSH CITY      MOCLDY    56  53  88 CALM      29.94R
MOOSE LAKE     CLEAR     50  48  93 CALM      29.90S
HINCKLEY       FAIR      54  52  94 CALM      29.93R
CLOQUET        CLEAR     50  48  93 W6        29.91R
MCGREGOR       CLEAR     52  52 100 CALM      29.93R
$$
MNZ071>073-080-081-089-090-097-098-131200-
   Southwest Minnesota

CITY           SKY/WX    TMP DP  RH WIND       PRES   REMARKS
MONTEVIDEO     CLEAR     57  55  94 NW5       30.01R
GRANITE FALLS  CLEAR     58  56  94 W7        30.02R
CANBY          CLEAR     58  55  90 W5        30.02R
MARSHALL       CLEAR     59  55  88 NW7       30.00R
REDWOOD FALLS  CLEAR     62  61  96 NW8       29.98R
OLIVIA         CLEAR     61  57  88 NW6       29.99R
PIPESTONE      CLEAR     64  63  94 N7        30.03R
WINDOM         CLEAR     64  61  88 NW7       30.00R
WORTHINGTON    CLEAR     66  63  88 W7        30.02S
JACKSON        CLEAR     64  61  88 W6        30.01R
TRACY          CLEAR     64  61  90 W5        30.01S
SLAYTON        CLEAR     61  60  98 CALM      30.03R
$$
MNZ065>067-074>077-082>085-091>093-131200-
   South Central Minnesota

CITY           SKY/WX    TMP DP  RH WIND       PRES   REMARKS
MANKATO        CLEAR     64  61  88 NW9       29.96R
NEW ULM        CLEAR     64  64 100 NW7       29.97R
ST JAMES       CLEAR     66  63  88 W10       29.98R
FAIRMONT       CLEAR     66  61  82 W8        29.98R
GLENCOE        CLEAR     64  56  78 NW6       29.96R
FARIBAULT      CLEAR     66  61  82 W6        29.95R
OWATONNA       CLEAR     64  63  94 W7        29.95R
WASECA         CLEAR     61  57  88 SW3       29.97R
ALBERT LEA     CLEAR     64  64 100 SW6       29.96S
$$
MNZ078>079-086>088-094>096-131200-
   Southeast Minnesota

CITY           SKY/WX    TMP DP  RH WIND       PRES   REMARKS
ROCHESTER      CLEAR     63  61  93 SW9       29.95S
RED WING       MOCLDY    64  64 100 NW5       29.91R
STANTON        CLOUDY    66  63  89 W6        29.93R
DODGE CENTER   PTCLDY    64  63  94 W9        29.95R
WINONA         CLEAR     63  63 100 CALM      29.91S
AUSTIN         CLEAR     63  63 100 SW6       29.95S
PRESTON        CLEAR     63  62  97 SW8       29.95S FOG
$$
ABBREVIATIONS USED IN REMARKS
   TC - TEMPERATURES IN CELSIUS
  WCI - WIND CHILL INDEX
   HX - HEAT INDEX
  VSB - VISIBILITY
$$


USA.gov is the U.S. government's official web portal to all federal, state and local government web resources and services.